Content
SEND FEEDBACK

Daily
Averages
Monthly
Summary
United States of America

AMHERST, MASSACHUSETTS


Home > North America > United States > Massachusetts
Elevation: 169 feet     Latitude: 42 23N     Longitude: 072 32W

WEATHER
 
SELECT A DAY
Number of Records: 235,834;   Date Range: 1/1/95 - 12/24/14
 
SHARE

PRINT THIS DATA

[ ← Previous Day ]
WEATHER ALMANAC - FEBRUARY 13, 2013
[ Next Day → ]
[ °C ]   °F
Weather ElementAverageHighLow
Temperature33.7 °F42.4 °F (1:55 pm)30.2 °F (11:42 pm)
Dewpoint24 °F28.8 °F (11:55 pm)20.1 °F (4:55 pm)
Humidity68.9 %94 % (11:55 pm)44 % (1:55 pm)
Barometer29.79 in29.89 in (4:55 am)29.72 in (11:59 pm)
Wind Speed3.7 mph15 mph (2:55 am)
Weather ElementAverage
Visibility8.1 mi
Wind DirectionESE (117.4 °)

Weather ElementTotal
Precipitation---
Heating Degree Days28.7 (Base 65)
Averaged from 34 records on February 13, 2013
WEATHER CONDITIONS BREAKOUT
WIND DIRECTION BREAKOUT
WEATHER BY HOUR - FEBRUARY 13, 2013
[ °C ]   °F
Local TimeTemperatureDewpointHumidityBarometerVisibilityWind DirectionWind SpeedGust SpeedPrecipitationEventsConditions
1:55 AM33.6 °F22.1 °F63 %29.87 in10.0 miWest (270°)11.5 mphOvercast
2:55 AM34.2 °F21.6 °F60 %29.88 in10.0 miWest (270°)15.0 mphOvercast
3:55 AM33.3 °F22.8 °F66 %29.88 in10.0 miWest (280°)9.2 mphOvercast
4:55 AM32.5 °F21.7 °F64 %29.89 in10.0 miWest (270°)9.2 mphMostly Cloudy
5:55 AM32.0 °F23.0 °F69 %29.88 in10.0 miWest (280°)8.1 mphOvercast
6:55 AM33.4 °F23.5 °F67 %29.88 in10.0 miWNW (300°)9.2 mphOvercast
7:55 AM33.3 °F23.9 °F69 %29.87 in10.0 miNW (310°)9.2 mphOvercast
8:55 AM34.0 °F23.5 °F66 %29.88 in10.0 miNW (310°)6.9 mphOvercast
9:55 AM34.5 °F24.1 °F66 %29.87 in10.0 miNNW (330°)4.6 mphOvercast
10:55 AM35.4 °F22.1 °F58 %29.86 in10.0 miNorth (350°)3.5 mphOvercast
11:55 AM36.5 °F21.7 °F55 %29.84 in10.0 miEast (80°)3.5 mphMostly Cloudy
12:55 PM40.3 °F21.9 °F48 %29.83 in10.0 miCalmScattered Clouds
1:55 PM42.4 °F21.9 °F44 %29.80 in10.0 miCalmClear
2:55 PM39.0 °F22.1 °F51 %29.77 in10.0 miNNE (30°)3.5 mphClear
3:55 PM39.6 °F22.1 °F50 %29.76 in10.0 miCalmClear
4:55 PM39.9 °F20.1 °F45 %29.74 in10.0 miCalmClear
5:55 PM33.1 °F22.6 °F66 %29.74 in10.0 miCalmClear
6:55 PM32.0 °F23.9 °F72 %29.73 in10.0 miNNE (30°)3.5 mphClear
7:55 PM31.6 °F23.4 °F71 %29.73 in10.0 miNorth (10°)4.6 mphMostly Cloudy
8:55 PM31.8 °F24.6 °F75 %29.73 in10.0 miNorth (360°)3.5 mphScattered Clouds
9:55 PM33.1 °F23.9 °F69 %29.73 in10.0 miNNE (20°)4.6 mphPartly Cloudy
10:55 PM33.4 °F21.9 °F63 %29.73 in10.0 miNorth (360°)3.5 mphScattered Clouds
11:03 PM32.0 °F24.8 °F75 %29.73 in10.0 miCalmMostly Cloudy
11:06 PM32.0 °F23.0 °F69 %29.73 in10.0 miCalmMostly Cloudy
11:10 PM33.8 °F23.0 °F65 %29.74 in8.0 miCalmSnowLight Snow
11:18 PM32.0 °F23.0 °F69 %29.74 in5.0 miENE (60°)5.8 mphSnowLight Snow
11:30 PM32.0 °F26.6 °F80 %29.73 in4.0 miENE (70°)3.5 mphSnowLight Snow
11:33 PM32.0 °F26.6 °F80 %29.74 in2.5 miVariable3.5 mphSnowLight Snow
11:36 PM32.0 °F26.6 °F80 %29.74 in2.0 miCalmSnowLight Snow
11:42 PM30.2 °F28.4 °F93 %29.74 in2.5 miCalmSnowLight Snow
11:49 PM30.2 °F28.4 °F93 %29.73 in2.5 miCalmSnowLight Snow
11:53 PM30.2 °F28.4 °F93 %29.73 in2.5 miCalmSnowLight Snow
11:55 PM30.2 °F28.8 °F94 %29.73 in2.5 miCalm0.00 inSnowLight Snow
11:59 PM30.2 °F28.4 °F93 %29.72 in3.0 miCalmSnowLight Snow
Hourly data recorded from KCEF, located miles away from Amherst, Massachusetts







STORIES FROM OUR PARTNERS